period_start,C,m1,H,J0,J1,J2,J3,J4,J5,JA,JB,JC,JD,JJ,JK,JN,#
2017-12-06 00:00:22,0.01,3.36,0.00,10.58,13.28,16.41,14.61,44.19,1027.40,2082.99,2443.02,2348.00,2674.96,599.99,628.79,26.51,0000 0000 0000 0000 000000
2017-12-06 00:05:23,0.06,3.36,0.00,10.59,13.30,16.45,14.66,44.25,1027.39,2082.98,2442.46,2347.63,2674.18,600.26,628.90,26.56,0000 0000 0000 0000 000000
2017-12-06 00:10:24,0.02,3.36,0.00,10.61,13.32,16.42,14.64,44.25,1027.40,2082.97,2442.00,2347.06,2673.98,600.06,628.67,26.61,0000 0000 0000 0000 000000
2017-12-06 00:15:26,0.04,3.37,0.00,10.63,13.33,16.43,14.60,44.16,1027.44,2082.96,2441.27,2346.98,2673.36,600.01,628.62,26.66,0000 0000 0000 0000 000000
2017-12-06 00:20:27,0.02,3.37,0.00,10.64,13.35,16.46,14.63,44.27,1027.40,2082.92,2440.97,2346.51,2673.00,599.76,628.43,26.71,0000 0000 0000 0000 000000
2017-12-06 00:25:28,0.05,3.37,0.00,10.66,13.37,16.48,14.60,44.21,1027.37,2082.89,2440.22,2346.02,2672.74,599.94,628.39,26.76,0000 0000 0000 0000 000000
2017-12-06 00:30:30,0.01,3.37,0.00,10.69,13.39,16.50,14.65,44.21,1027.37,2082.80,2439.87,2345.97,2672.06,600.16,628.61,26.81,0000 0000 0000 0000 000000
2017-12-06 00:35:31,0.02,3.37,0.00,10.71,13.40,16.52,14.66,44.23,1027.38,2082.55,2439.06,2345.27,2671.75,600.01,628.34,26.86,0000 0000 0000 0000 000000
2017-12-06 00:40:33,0.03,3.37,0.00,10.72,13.42,16.54,14.63,44.09,1027.37,2082.25,2438.40,2344.99,2671.04,599.92,628.30,26.91,0000 0000 0000 0000 000000
2017-12-06 00:45:34,0.02,3.37,0.00,10.74,13.43,16.58,14.66,44.08,1027.40,2082.23,2437.95,2344.74,2670.78,600.23,628.60,26.96,0000 0000 0000 0000 000000
2017-12-06 00:50:36,0.05,3.38,0.00,10.76,13.45,16.59,14.67,44.10,1027.37,2082.17,2437.15,2344.07,2670.06,600.02,628.38,27.01,0000 0000 0000 0000 000000
2017-12-06 00:55:37,0.05,3.38,0.00,10.77,13.47,16.57,14.59,44.02,1027.38,2082.06,2436.40,2343.80,2669.51,600.26,628.68,27.06,0000 0000 0000 0000 000000
2017-12-06 01:00:38,0.04,3.38,0.00,10.78,13.48,16.58,14.60,44.03,1027.36,2082.04,2435.77,2343.05,2669.00,600.24,628.49,27.12,0000 0000 0000 0000 000000
2017-12-06 01:05:39,0.05,3.38,0.00,10.80,13.49,16.59,14.62,44.13,1027.36,2082.03,2434.96,2342.82,2668.37,599.97,628.13,27.17,0000 0000 0000 0000 000000
2017-12-06 01:10:40,0.05,3.39,0.00,10.82,13.51,16.62,14.59,44.08,1027.36,2082.01,2434.10,2342.09,2667.88,599.88,628.03,27.22,0000 0000 0000 0000 000000
2017-12-06 01:15:42,0.04,3.39,0.00,10.86,13.53,16.63,14.55,44.05,1027.36,2082.00,2433.47,2341.96,2667.10,599.71,627.76,27.27,0000 0000 0000 0000 000000
2017-12-06 01:20:43,0.04,3.39,0.00,10.92,13.54,16.71,14.59,43.99,1027.36,2082.00,2432.96,2341.31,2666.89,600.07,627.96,27.32,0000 0000 0000 0000 000000
2017-12-06 01:25:44,0.04,3.39,0.00,10.96,13.57,16.72,14.69,44.17,1027.36,2082.00,2432.16,2341.00,2666.09,600.02,627.77,27.37,0000 0000 0000 0000 000000
2017-12-06 01:30:46,0.06,3.39,0.00,11.03,13.59,16.76,14.62,44.17,1027.36,2082.00,2431.63,2340.56,2665.71,599.92,627.61,27.42,0000 0000 0000 0000 000000
2017-12-06 01:35:47,0.03,3.40,0.00,11.13,13.62,16.80,14.62,44.17,1027.36,2081.98,2430.91,2340.01,2665.01,600.01,627.50,27.47,0000 0000 0000 0000 000000
2017-12-06 01:40:49,0.07,3.40,0.00,11.24,13.66,16.83,14.58,44.17,1027.36,2081.93,2430.08,2339.39,2664.33,600.05,627.44,27.52,0000 0000 0000 0000 000000
2017-12-06 01:45:50,0.02,3.40,0.00,11.34,13.70,16.88,14.59,44.11,1027.36,2081.74,2429.17,2338.91,2663.70,600.09,627.12,27.57,0000 0000 0000 0000 000000
2017-12-06 01:50:51,0.02,3.40,0.00,11.46,13.74,16.93,14.58,44.13,1027.36,2081.22,2428.30,2338.12,2662.95,599.98,626.71,27.62,0000 0000 0000 0000 000000
2017-12-06 01:55:53,0.06,3.40,0.00,11.59,13.79,16.98,14.61,44.07,1027.36,2081.06,2427.48,2337.66,2662.14,600.15,626.58,27.67,0000 0000 0000 0000 000000
2017-12-06 02:00:54,0.06,3.41,0.00,11.71,13.84,17.03,14.61,44.11,1027.36,2081.00,2426.50,2337.00,2661.40,600.28,626.33,27.72,0000 0000 0000 0000 000000
2017-12-06 02:05:55,0.08,3.41,0.00,11.83,13.90,17.08,14.48,44.10,1027.36,2080.99,2425.50,2336.19,2660.54,599.78,625.71,27.77,0000 0000 0000 0000 000000
2017-12-06 02:10:56,0.06,3.41,0.00,11.95,13.96,17.14,14.54,44.03,1027.36,2080.95,2424.58,2335.61,2659.80,599.80,625.46,27.82,0000 0000 0000 0000 000000
2017-12-06 02:15:57,-0.01,3.42,0.00,12.05,14.03,17.20,14.49,44.05,1027.36,2080.50,2423.74,2334.94,2658.97,599.91,625.35,27.87,0000 0000 0000 0000 000000
2017-12-06 02:20:59,0.05,3.42,0.00,12.18,14.10,17.29,14.52,43.98,1027.36,2080.05,2422.83,2334.11,2658.10,599.50,624.70,27.92,0000 0000 0000 0000 000000
2017-12-06 02:26:00,0.06,3.42,0.00,12.29,14.17,17.38,14.47,43.94,1027.36,2080.00,2421.96,2333.63,2657.34,599.91,624.84,27.97,0000 0000 0000 0000 000000
2017-12-06 02:31:01,0.05,3.42,0.00,12.39,14.25,17.45,14.43,43.97,1027.35,2079.94,2420.98,2332.90,2656.52,599.76,624.42,28.02,0000 0000 0000 0000 000000
2017-12-06 02:36:03,0.00,3.43,0.00,12.51,14.33,17.55,14.46,43.83,1027.34,2079.34,2419.95,2332.07,2655.67,599.58,624.03,28.07,0000 0000 0000 0000 000000
2017-12-06 02:41:04,0.06,3.43,0.00,12.65,14.41,17.66,14.46,43.79,1027.36,2079.03,2418.93,2331.30,2654.78,600.05,624.06,28.12,0000 0000 0000 0000 000000
2017-12-06 02:46:05,0.07,3.43,0.00,12.76,14.49,17.74,14.44,43.86,1027.36,2079.00,2417.93,2330.62,2653.87,599.72,623.60,28.17,0000 0000 0000 0000 000000
2017-12-06 02:51:06,0.06,3.43,0.00,12.86,14.58,17.83,14.53,43.88,1027.35,2078.87,2416.80,2329.80,2652.90,600.05,623.74,28.22,0000 0000 0000 0000 000000
2017-12-06 02:56:08,0.01,3.44,0.00,12.96,14.66,17.94,14.46,43.88,1027.36,2078.31,2415.82,2329.02,2652.03,599.45,623.07,28.27,0000 0000 0000 0000 000000
2017-12-06 03:01:09,0.06,3.44,0.00,13.06,14.74,18.05,14.47,43.78,1027.36,2078.01,2414.93,2328.23,2651.17,600.20,623.45,28.32,0000 0000 0000 0000 000000
2017-12-06 03:06:11,0.05,3.44,0.00,13.14,14.83,18.13,14.42,43.82,1027.36,2077.99,2414.07,2327.84,2650.47,599.66,622.76,28.37,0000 0000 0000 0000 000000
2017-12-06 03:11:13,0.04,3.44,0.00,13.22,14.91,18.23,14.45,43.76,1027.36,2077.82,2413.21,2327.06,2649.76,600.09,623.02,28.42,0000 0000 0000 0000 000000
2017-12-06 03:16:14,-0.01,3.44,0.00,13.29,15.00,18.32,14.44,43.69,1027.36,2077.12,2412.68,2326.50,2649.01,599.89,622.67,28.47,0000 0000 0000 0000 000000
2017-12-06 03:21:16,0.03,3.44,0.00,13.39,15.09,18.38,14.44,43.73,1027.36,2077.00,2412.01,2325.99,2648.25,600.03,622.57,28.52,0000 0000 0000 0000 000000
2017-12-06 03:26:17,0.07,3.45,0.00,13.52,15.18,18.50,14.39,43.67,1027.36,2076.89,2411.25,2325.23,2647.62,599.79,622.07,28.57,0000 0000 0000 0000 000000
2017-12-06 03:31:18,-0.03,3.45,0.00,13.59,15.26,18.58,14.44,43.70,1027.36,2076.21,2410.48,2324.78,2646.87,600.10,622.37,28.62,0000 0000 0000 0000 000000
2017-12-06 03:36:19,0.03,3.45,0.00,13.67,15.35,18.68,14.43,43.66,1027.36,2076.00,2409.96,2324.05,2646.06,600.11,622.14,28.67,0000 0000 0000 0000 000000
2017-12-06 03:41:21,0.06,3.45,0.00,13.76,15.43,18.75,14.44,43.72,1027.36,2075.95,2409.18,2323.68,2645.46,600.12,621.78,28.72,0000 0000 0000 0000 000000
2017-12-06 03:46:22,-0.04,3.45,0.00,13.87,15.52,18.85,14.40,43.58,1027.36,2075.15,2408.79,2323.01,2644.61,599.83,621.39,28.77,0000 0000 0000 0000 000000
2017-12-06 03:51:23,0.08,3.45,0.00,13.97,15.61,18.95,14.36,43.59,1027.36,2074.98,2407.81,2322.18,2643.71,600.16,621.40,28.82,0000 0000 0000 0000 000000
2017-12-06 03:56:25,0.02,3.45,0.00,14.07,15.69,19.04,14.40,43.78,1027.36,2074.54,2406.76,2321.42,2642.67,599.90,620.89,28.87,0000 0000 0000 0000 000000
2017-12-06 04:01:26,0.06,3.45,0.00,14.17,15.78,19.12,14.44,43.56,1027.36,2074.02,2405.71,2320.66,2641.71,600.25,621.03,28.92,0000 0000 0000 0000 000000
2017-12-06 04:06:27,0.08,3.46,0.00,14.26,15.87,19.23,14.38,43.63,1027.36,2073.98,2404.46,2319.77,2640.66,599.82,620.58,28.97,0000 0000 0000 0000 000000
2017-12-06 04:11:28,-0.01,3.46,0.00,14.35,15.96,19.33,14.34,43.61,1027.38,2073.44,2403.50,2318.91,2639.67,599.68,620.20,29.02,0000 0000 0000 0000 000000
2017-12-06 04:16:30,0.07,3.46,0.00,14.43,16.05,19.41,14.35,43.55,1027.37,2073.01,2402.43,2318.05,2638.63,600.20,620.50,29.07,0000 0000 0000 0000 000000
2017-12-06 04:21:31,0.08,3.47,0.00,14.50,16.14,19.51,14.36,43.67,1027.36,2072.96,2401.35,2317.19,2637.65,599.55,619.66,29.12,0000 0000 0000 0000 000000
2017-12-06 04:26:33,-0.00,3.47,0.00,14.60,16.23,19.61,14.40,43.64,1027.36,2072.31,2400.14,2316.40,2636.68,599.94,619.91,29.17,0000 0000 0000 0000 000000
2017-12-06 04:31:34,0.09,3.47,0.00,14.68,16.32,19.68,14.34,43.54,1027.36,2072.01,2398.77,2315.47,2635.68,599.90,619.74,29.22,0000 0000 0000 0000 000000
2017-12-06 04:36:35,0.05,3.47,0.00,14.75,16.41,19.77,14.32,43.64,1027.36,2071.98,2397.73,2314.84,2634.92,600.03,619.63,29.27,0000 0000 0000 0000 000000
2017-12-06 04:41:37,-0.00,3.48,0.00,14.81,16.49,19.87,14.38,43.58,1027.36,2071.57,2396.94,2314.05,2634.08,600.12,619.75,29.32,0000 0000 0000 0000 000000
2017-12-06 04:46:38,0.04,3.48,0.00,14.89,16.58,19.96,14.35,43.63,1027.38,2071.04,2396.07,2313.50,2633.38,599.77,619.07,29.37,0000 0000 0000 0000 000000
2017-12-06 04:51:39,0.04,3.48,0.00,14.95,16.67,20.02,14.40,43.64,1027.37,2070.99,2395.24,2312.99,2632.68,600.10,619.37,29.42,0000 0000 0000 0000 000000
2017-12-06 04:56:41,0.02,3.48,0.00,15.03,16.75,20.11,14.32,43.58,1027.37,2070.77,2394.74,2312.41,2632.02,599.73,618.72,29.47,0000 0000 0000 0000 000000
2017-12-06 05:01:42,-0.01,3.48,0.00,15.11,16.84,20.17,14.34,43.56,1027.39,2070.11,2394.03,2311.99,2631.39,599.79,618.55,29.52,0000 0000 0000 0000 000000
2017-12-06 05:06:43,0.04,3.48,0.00,15.19,16.92,20.26,14.33,43.54,1027.39,2070.00,2393.70,2311.28,2630.84,599.79,618.49,29.57,0000 0000 0000 0000 000000
2017-12-06 05:11:45,-0.00,3.48,0.00,15.24,17.00,20.35,14.28,43.50,1027.38,2069.54,2392.78,2310.83,2630.03,599.63,618.26,29.63,0000 0000 0000 0000 000000
2017-12-06 05:16:46,0.03,3.48,0.00,15.31,17.09,20.45,14.42,43.58,1027.36,2069.05,2392.00,2310.06,2629.21,600.19,618.54,29.68,0000 0000 0000 0000 000000
2017-12-06 05:21:47,0.05,3.49,0.00,15.37,17.17,20.48,14.37,43.41,1027.36,2069.00,2391.27,2309.74,2628.78,600.32,618.57,29.73,0000 0000 0000 0000 000000
2017-12-06 05:26:48,0.03,3.49,0.00,15.43,17.25,20.57,14.47,43.63,1027.36,2068.87,2390.73,2309.04,2628.04,600.19,618.39,29.78,0000 0000 0000 0000 000000
2017-12-06 05:31:49,-0.03,3.49,0.00,15.51,17.34,20.67,14.32,43.48,1027.36,2068.13,2390.02,2308.74,2627.48,600.20,618.26,29.83,0000 0000 0000 0000 000000
2017-12-06 05:36:51,0.04,3.49,0.00,15.57,17.42,20.73,14.37,43.58,1027.36,2068.01,2389.47,2308.07,2626.99,600.13,617.97,29.88,0000 0000 0000 0000 000000
2017-12-06 05:41:52,0.03,3.49,0.00,15.65,17.50,20.80,14.35,43.46,1027.36,2067.94,2388.95,2307.83,2626.31,600.23,617.89,29.93,0000 0000 0000 0000 000000
2017-12-06 05:46:54,-0.03,3.49,0.00,15.73,17.58,20.88,14.27,43.48,1027.36,2067.25,2388.15,2307.06,2625.79,599.80,617.45,29.98,0000 0000 0000 0000 000000
2017-12-06 05:51:55,0.02,3.49,0.00,15.81,17.66,20.98,14.25,43.60,1027.37,2067.00,2387.80,2306.93,2625.07,599.62,616.89,30.03,0000 0000 0000 0000 000000
2017-12-06 05:56:56,0.06,3.49,0.00,15.87,17.74,21.04,14.30,43.47,1027.36,2066.97,2387.06,2306.17,2624.63,599.93,617.12,30.08,0000 0000 0000 0000 000000
2017-12-06 06:01:57,-0.05,3.49,0.00,15.92,17.82,21.07,14.33,43.49,1027.36,2066.39,2386.49,2305.90,2624.01,600.07,617.25,30.13,0000 0000 0000 0000 000000
2017-12-06 06:06:59,0.04,3.49,0.00,16.00,17.89,21.18,14.25,43.39,1027.36,2066.02,2385.98,2305.19,2623.40,599.96,616.97,30.18,0000 0000 0000 0000 000000
2017-12-06 06:12:00,0.03,3.50,0.00,16.05,17.97,21.22,14.27,43.40,1027.36,2065.99,2385.18,2304.92,2623.00,599.74,616.57,30.23,0000 0000 0000 0000 000000
2017-12-06 06:17:01,0.02,3.50,0.00,16.11,18.05,21.33,14.24,43.40,1027.36,2065.67,2384.75,2304.16,2622.38,599.34,615.87,30.28,0000 0000 0000 0000 000000
2017-12-06 06:22:02,-0.02,3.49,0.00,16.17,18.13,21.37,14.34,43.33,1027.36,2065.08,2384.03,2303.93,2621.92,600.21,616.85,30.33,0000 0000 0000 0000 000000
2017-12-06 06:27:03,0.07,3.50,0.00,16.23,18.20,21.46,14.30,43.49,1027.37,2065.00,2383.42,2303.14,2621.12,599.37,615.88,30.38,0000 0000 0000 0000 000000
2017-12-06 06:32:05,-0.02,3.50,0.00,16.30,18.28,21.53,14.33,43.38,1027.36,2064.78,2382.93,2302.99,2620.73,599.54,615.86,30.43,0000 0000 0000 0000 000000
2017-12-06 06:37:06,0.01,3.50,0.00,16.35,18.35,21.58,14.27,43.32,1027.36,2064.08,2382.09,2302.37,2620.02,599.60,615.70,30.48,0000 0000 0000 0000 000000
2017-12-06 06:42:07,0.04,3.50,0.00,16.42,18.43,21.66,14.27,43.40,1027.36,2064.00,2381.53,2301.98,2619.36,599.60,615.66,30.53,0000 0000 0000 0000 000000
2017-12-06 06:47:09,0.03,3.50,0.00,16.52,18.50,21.73,14.23,43.31,1027.37,2063.91,2380.97,2301.34,2618.96,599.85,615.61,30.58,0000 0000 0000 0000 000000
2017-12-06 06:52:10,-0.03,3.50,0.00,16.57,18.57,21.80,14.24,43.31,1027.38,2063.28,2380.14,2300.99,2618.12,599.97,615.68,30.63,0000 0000 0000 0000 000000
2017-12-06 06:57:11,0.04,3.50,0.00,16.64,18.64,21.88,14.30,43.51,1027.39,2063.01,2379.76,2300.35,2617.80,600.10,615.64,30.68,0000 0000 0000 0000 000000
2017-12-06 07:02:13,0.03,3.50,0.00,16.70,18.71,21.93,14.28,43.35,1027.38,2062.99,2379.02,2299.99,2617.05,600.50,615.88,30.73,0000 0000 0000 0000 000000
2017-12-06 07:07:14,0.02,3.51,0.00,16.75,18.78,22.00,14.24,43.37,1027.40,2062.73,2378.37,2299.59,2616.67,600.07,615.47,30.78,0000 0000 0000 0000 000000
2017-12-06 07:12:15,-0.02,3.50,0.00,16.79,18.86,22.08,14.37,43.27,1027.45,2062.09,2377.97,2299.01,2616.02,600.27,615.57,30.83,0000 0000 0000 0000 000000
2017-12-06 07:17:17,0.07,3.51,0.00,16.86,18.92,22.14,14.25,43.23,1027.45,2062.00,2377.17,2298.67,2615.51,599.98,615.01,30.88,0000 0000 0000 0000 000000
2017-12-06 07:22:18,0.02,3.51,0.00,16.93,19.00,22.21,14.34,43.32,1027.41,2061.97,2376.72,2298.03,2614.96,600.20,615.20,30.93,0000 0000 0000 0000 000000
2017-12-06 07:27:19,-0.02,3.51,0.00,17.00,19.07,22.29,14.27,43.30,1027.41,2061.46,2376.01,2297.74,2614.19,599.90,614.81,30.98,0000 0000 0000 0000 000000
2017-12-06 07:32:20,0.03,3.51,0.00,17.05,19.13,22.36,14.28,43.33,1027.45,2061.02,2375.22,2297.03,2613.79,599.91,614.67,31.03,0000 0000 0000 0000 000000
2017-12-06 07:37:21,0.06,3.51,0.00,17.11,19.20,22.40,14.35,43.30,1027.60,2061.00,2374.62,2296.60,2613.04,600.26,614.98,31.08,0000 0000 0000 0000 000000
2017-12-06 07:42:23,0.02,3.51,0.00,17.17,19.27,22.46,14.23,43.30,1027.73,2060.80,2373.75,2296.02,2612.32,599.75,614.37,31.13,0000 0000 0000 0000 000000
2017-12-06 07:47:24,0.01,3.51,0.00,17.19,19.34,22.58,14.25,43.23,1027.80,2060.14,2372.83,2295.30,2611.64,599.99,614.75,31.18,0000 0000 0000 0000 000000
2017-12-06 07:52:25,0.02,3.52,0.00,17.27,19.41,22.62,14.21,43.36,1027.83,2060.01,2372.03,2294.91,2610.99,599.92,614.41,31.23,0000 0000 0000 0000 000000
2017-12-06 07:57:27,0.08,3.52,0.00,17.30,19.48,22.69,14.30,43.33,1027.85,2059.99,2371.25,2294.12,2610.24,600.18,614.67,31.28,0000 0000 0000 0000 000000
2017-12-06 08:02:28,-0.06,3.52,0.00,17.35,19.54,22.75,14.23,43.33,1027.85,2059.55,2370.95,2293.95,2609.64,599.95,614.42,31.33,0000 0000 0000 0000 000000
2017-12-06 08:07:29,0.05,3.52,0.00,17.42,19.61,22.80,14.24,43.36,1027.85,2059.02,2370.14,2293.16,2609.02,600.14,614.45,31.38,0000 0000 0000 0000 000000
2017-12-06 08:12:30,0.04,3.52,0.00,17.44,19.68,22.88,14.28,43.33,1027.85,2058.98,2369.56,2292.93,2608.34,600.34,614.50,31.43,0000 0000 0000 0000 000000
2017-12-06 08:17:31,0.02,3.52,0.00,17.52,19.74,22.91,14.25,43.33,1027.84,2058.78,2368.93,2292.15,2607.87,600.15,614.07,31.48,0000 0000 0000 0000 000000
2017-12-06 08:22:32,-0.02,3.52,0.00,17.54,19.81,22.96,14.23,43.38,1027.84,2058.11,2368.11,2291.90,2607.07,599.82,613.80,31.53,0000 0000 0000 0000 000000
2017-12-06 08:27:33,0.07,3.52,0.00,17.58,19.87,23.03,14.31,43.38,1027.84,2058.01,2367.32,2291.09,2606.39,600.30,613.95,31.58,0000 0000 0000 0000 000000
2017-12-06 08:32:34,0.50,3.54,0.00,17.62,19.93,23.09,14.25,43.33,1027.84,2057.97,2362.60,2288.13,2603.01,600.06,613.93,31.63,0000 0000 0000 0000 000000
2017-12-06 08:37:36,0.43,3.57,0.00,17.64,20.00,23.15,14.32,43.42,1027.84,2057.47,2352.80,2282.68,2596.86,600.26,614.06,31.68,0000 0000 0000 0000 000000
2017-12-06 08:42:37,0.15,3.58,0.00,17.70,20.06,23.22,14.23,43.30,1027.84,2057.03,2349.65,2280.80,2594.72,599.88,613.51,31.73,0000 0000 0000 0000 000000
2017-12-06 08:47:39,0.05,3.58,0.00,17.72,20.12,23.27,14.18,43.32,1027.83,2056.99,2348.50,2280.02,2593.88,599.86,613.34,31.78,0000 0000 0000 0000 000000
2017-12-06 08:52:40,0.04,3.59,0.00,17.76,20.18,23.33,14.24,43.26,1027.78,2056.83,2347.78,2279.49,2593.06,600.22,613.64,31.83,0000 0000 0000 0000 000000
2017-12-06 08:57:41,-0.02,3.59,0.00,17.79,20.23,23.38,14.22,43.42,1027.79,2056.18,2346.94,2278.97,2592.40,599.78,613.28,31.88,0000 0000 0000 0000 000000
2017-12-06 09:02:43,0.05,3.59,0.00,17.80,20.29,23.44,14.25,43.40,1027.78,2056.02,2346.09,2278.28,2591.87,599.74,613.08,31.93,0000 0000 0000 0000 000000
2017-12-06 09:07:44,0.05,3.59,0.00,17.85,20.34,23.51,14.27,43.38,1027.71,2055.99,2345.29,2277.91,2591.07,600.05,613.20,31.98,0000 0000 0000 0000 000000
2017-12-06 09:12:45,0.07,3.59,0.00,17.87,20.40,23.56,14.25,43.39,1027.47,2055.92,2344.53,2277.12,2590.43,599.94,612.96,32.03,0000 0000 0000 0000 000000
2017-12-06 09:17:47,-0.04,3.59,0.00,17.90,20.46,23.62,14.26,43.34,1027.41,2055.39,2343.81,2276.78,2589.87,600.04,613.05,32.08,0000 0000 0000 0000 000000
2017-12-06 09:22:48,0.04,3.59,0.00,17.94,20.51,23.66,14.21,43.31,1027.40,2055.04,2343.01,2276.05,2589.07,599.95,612.87,32.13,0000 0000 0000 0000 000000
2017-12-06 09:27:49,0.05,3.60,0.00,17.97,20.56,23.70,14.29,43.30,1027.41,2055.00,2342.20,2275.78,2588.60,600.12,612.72,32.18,0000 0000 0000 0000 000000
2017-12-06 09:32:50,0.05,3.60,0.00,18.01,20.61,23.75,14.30,43.31,1027.45,2054.98,2341.43,2275.03,2587.96,600.10,612.82,32.23,0000 0000 0000 0000 000000
2017-12-06 09:37:52,0.03,3.60,0.00,18.02,20.66,23.79,14.22,43.20,1027.42,2054.84,2340.79,2274.69,2587.20,600.05,612.72,32.29,0000 0000 0000 0000 000000
2017-12-06 09:42:53,-0.03,3.60,0.00,18.06,20.71,23.84,14.28,43.23,1027.45,2054.16,2340.03,2274.02,2586.76,599.76,612.38,32.34,0000 0000 0000 0000 000000
2017-12-06 09:47:54,0.05,3.60,0.00,18.09,20.76,23.89,14.26,43.27,1027.39,2054.01,2339.28,2273.74,2586.04,600.00,612.61,32.39,0000 0000 0000 0000 000000
2017-12-06 09:52:55,0.06,3.61,0.00,18.13,20.81,23.95,14.19,43.21,1027.38,2053.99,2338.55,2273.03,2585.43,599.98,612.36,32.44,0000 0000 0000 0000 000000
2017-12-06 09:57:57,0.04,3.61,0.00,18.16,20.86,23.97,14.33,43.27,1027.40,2053.98,2337.89,2272.68,2584.86,600.22,612.48,32.49,0000 0000 0000 0000 000000
2017-12-06 10:02:58,0.05,3.61,0.00,18.19,20.90,24.01,14.29,43.19,1027.39,2053.57,2336.62,2271.75,2583.75,600.28,612.48,32.54,0000 0000 0000 0000 000000
2017-12-06 10:07:59,0.09,3.61,0.00,18.21,20.95,24.05,14.21,43.14,1027.40,2053.08,2335.10,2270.53,2582.45,600.04,612.24,32.59,0000 0000 0000 0000 000000
2017-12-06 10:13:00,0.13,3.62,0.00,18.24,20.99,24.08,14.28,43.16,1027.39,2053.00,2333.16,2269.26,2580.89,599.95,612.16,32.64,0000 0000 0000 0000 000000
2017-12-06 10:18:02,0.14,3.63,0.00,18.28,21.03,24.14,14.20,43.23,1027.37,2053.00,2331.31,2267.86,2579.45,599.92,611.96,32.69,0000 0000 0000 0000 000000
2017-12-06 10:23:03,0.14,3.64,0.00,18.30,21.07,24.17,14.18,43.14,1027.37,2052.98,2329.42,2266.55,2577.91,599.76,611.88,32.74,0000 0000 0000 0000 000000
2017-12-06 10:28:05,0.09,3.64,0.00,18.34,21.12,24.22,14.22,43.08,1027.36,2052.83,2327.75,2265.37,2576.63,600.05,611.95,32.79,0000 0000 0000 0000 000000
2017-12-06 10:33:06,0.05,3.65,0.00,18.36,21.16,24.24,14.15,43.11,1027.36,2052.40,2326.44,2264.46,2575.49,599.78,611.73,32.84,0000 0000 0000 0000 000000
2017-12-06 10:38:07,0.11,3.65,0.00,18.40,21.20,24.29,14.26,43.16,1027.36,2052.03,2324.61,2263.14,2573.96,600.16,611.96,32.89,0000 0000 0000 0000 000000
2017-12-06 10:43:09,0.14,3.66,0.00,18.42,21.24,24.31,14.21,43.08,1027.36,2052.01,2322.66,2261.79,2572.48,599.88,611.67,32.94,0000 0000 0000 0000 000000
2017-12-06 10:48:10,0.12,3.66,0.00,18.45,21.28,24.37,14.26,43.16,1027.36,2052.00,2321.02,2260.63,2571.20,600.14,611.86,32.99,0000 0000 0000 0000 000000
2017-12-06 10:53:12,0.17,3.67,0.00,18.48,21.32,24.41,14.24,43.20,1027.35,2051.97,2318.73,2259.07,2569.48,599.89,611.55,33.04,0000 0000 0000 0000 000000
2017-12-06 10:58:13,0.10,3.68,0.00,18.51,21.36,24.44,14.17,43.17,1027.32,2051.91,2316.92,2257.89,2568.11,599.63,611.24,33.09,0000 0000 0000 0000 000000
2017-12-06 11:03:14,0.07,3.68,0.00,18.54,21.40,24.49,14.27,43.12,1027.26,2051.57,2315.45,2256.89,2566.86,599.99,611.50,33.15,0000 0000 0000 0000 000000
2017-12-06 11:08:16,0.09,3.69,0.00,18.55,21.44,24.51,14.19,43.10,1027.15,2051.11,2313.86,2255.78,2565.62,600.00,611.50,33.20,0000 0000 0000 0000 000000
2017-12-06 11:13:17,0.13,3.69,0.00,18.60,21.48,24.55,14.15,43.10,1027.00,2051.02,2312.13,2254.55,2564.21,599.94,611.14,33.25,0000 0000 0000 0000 000000
2017-12-06 11:18:18,0.13,3.70,0.00,18.60,21.51,24.59,14.26,43.14,1027.02,2051.00,2310.32,2253.30,2562.68,600.11,611.29,33.30,0000 0000 0000 0000 000000
2017-12-06 11:23:20,0.13,3.71,0.00,18.65,21.55,24.62,14.20,43.16,1027.04,2050.97,2308.53,2251.94,2561.20,600.10,611.27,33.35,0000 0000 0000 0000 000000
2017-12-06 11:28:21,0.14,3.71,0.00,18.67,21.59,24.67,14.14,43.16,1027.12,2050.90,2306.71,2250.67,2559.72,599.85,610.98,33.40,0000 0000 0000 0000 000000
2017-12-06 11:33:22,0.05,3.72,0.00,18.70,21.63,24.70,14.18,43.13,1027.08,2050.40,2304.94,2249.46,2558.55,599.95,611.10,33.45,0000 0000 0000 0000 000000
2017-12-06 11:38:24,0.08,3.72,0.00,18.71,21.66,24.71,14.25,43.15,1027.00,2050.06,2303.57,2248.49,2557.49,599.87,610.80,33.50,0000 0000 0000 0000 000000
2017-12-06 11:43:25,0.09,3.73,0.00,18.75,21.70,24.75,14.23,43.22,1027.04,2050.01,2302.28,2247.54,2556.36,599.66,610.59,33.55,0000 0000 0000 0000 000000
2017-12-06 11:48:26,0.13,3.73,0.00,18.77,21.74,24.78,14.21,43.14,1026.92,2050.00,2300.57,2246.33,2554.98,599.97,610.76,33.60,0000 0000 0000 0000 000000
2017-12-06 11:53:27,0.14,3.74,0.00,18.81,21.77,24.83,14.27,43.16,1026.89,2049.98,2298.63,2244.98,2553.48,600.19,610.90,33.65,0000 0000 0000 0000 000000
2017-12-06 11:58:28,0.10,3.75,0.00,18.82,21.80,24.85,14.20,43.11,1026.90,2049.97,2296.97,2243.89,2552.19,600.14,610.65,33.70,0000 0000 0000 0000 000000
2017-12-06 12:03:29,0.08,3.75,0.00,18.87,21.83,24.89,14.07,43.08,1026.89,2049.81,2295.63,2242.93,2551.12,599.59,610.17,33.75,0000 0000 0000 0000 000000
2017-12-06 12:08:30,0.03,3.75,0.00,18.88,21.87,24.93,14.21,43.23,1026.87,2049.31,2294.32,2242.05,2550.10,600.12,610.68,33.80,0000 0000 0000 0000 000000
2017-12-06 12:13:32,0.08,3.76,0.00,18.92,21.90,24.95,14.20,43.08,1026.88,2049.08,2293.18,2241.19,2549.16,600.15,610.58,33.85,0000 0000 0000 0000 000000
2017-12-06 12:18:33,0.02,3.76,0.00,18.94,21.93,24.99,14.27,43.11,1026.88,2049.05,2292.27,2241.00,2548.98,600.37,610.73,33.90,0000 0000 0000 0000 000000
2017-12-06 12:23:34,0.01,3.76,0.00,18.97,21.96,25.02,14.17,43.06,1026.87,2049.01,2292.00,2240.92,2548.63,599.93,610.33,33.95,0000 0000 0000 0000 000000
2017-12-06 12:28:35,0.06,3.76,0.00,18.98,21.99,25.04,14.20,43.11,1026.87,2049.00,2291.54,2240.22,2548.07,600.23,610.57,34.00,0000 0000 0000 0000 000000
2017-12-06 12:33:36,0.01,3.76,0.00,19.02,22.02,25.07,14.16,42.90,1026.87,2049.00,2291.01,2240.00,2548.00,599.90,610.15,34.06,0000 0000 0000 0000 000000
2017-12-06 12:38:38,0.01,3.76,0.00,19.03,22.05,25.08,14.28,43.07,1026.87,2049.00,2290.94,2239.99,2547.81,600.13,610.29,34.11,0000 0000 0000 0000 000000
2017-12-06 12:43:39,0.04,3.77,0.00,19.07,22.08,25.13,14.27,43.17,1026.87,2048.96,2290.18,2239.89,2547.10,600.24,610.40,34.16,0000 0000 0000 0000 000000
2017-12-06 12:48:40,0.01,3.77,0.00,19.09,22.11,25.14,14.17,43.09,1026.87,2048.78,2290.00,2239.20,2547.00,599.97,610.09,34.21,0000 0000 0000 0000 000000
2017-12-06 12:53:42,-0.03,3.77,0.00,19.12,22.14,25.19,14.20,43.06,1026.87,2048.23,2289.41,2239.01,2546.71,599.93,610.05,34.26,0000 0000 0000 0000 000000